Le nostre stazioni meteo in Italia

Pubblicità
Il mio iltempo24.it
Cervia, Italia (16148): Temperatura & dewpoint: 15.08.2019 14:00:00 - 21.08.2019 14:00:00 (CEST)Cervia, Italia (16148): velocità del vento: 15.08.2019 14:00:00 - 21.08.2019 14:00:00 (CEST)Cervia, Italia (16148): direzione del vento: 15.08.2019 14:00:00 - 21.08.2019 14:00:00 (CEST)Cervia, Italia (16148): reduced air pressure: 15.08.2019 14:00:00 - 21.08.2019 14:00:00 (CEST)Cervia, Italia (16148): visibility: 15.08.2019 14:00:00 - 21.08.2019 14:00:00 (CEST)Cervia, Italia (16148): ore di luce: 15.08.2019 14:00:00 - 21.08.2019 14:00:00 (CEST)
Data & Tempo tt [°C] td [°C] ff [km/h] ff [kn] dd ppp [hPa] vv [km] sd [min]
21.08.2019 14:00:00 31,4 23,8 11 6 NNO 1016,9 15 60
21.08.2019 13:00:00 30,0 24,0 13 7 NNO - 10 -
21.08.2019 12:00:00 29,0 24,0 13 7 NO - 10 -
21.08.2019 11:00:00 27,6 23,0 15 8 ONO 1017,4 15 60
21.08.2019 10:00:00 26,0 22,0 16 9 ONO - 10 -
21.08.2019 09:00:00 24,0 21,0 21 11 O - 10 -
21.08.2019 08:00:00 21,2 18,6 15 8 O 1017,1 20 12
21.08.2019 07:00:00 21,0 18,0 13 7 O - 10 -
21.08.2019 06:00:00 21,0 20,0 4 2 SSO - 10 -
21.08.2019 05:00:00 21,0 20,2 4 2 SO 1015,7 20 -
21.08.2019 04:00:00 21,0 20,0 2 1 OSO - 10 -
21.08.2019 03:00:00 23,0 21,0 4 2 O - 10 -
21.08.2019 02:00:00 23,0 21,1 5 3 O 1015,5 20 -
21.08.2019 01:00:00 23,0 21,0 4 2 SSO - 10 -
21.08.2019 00:00:00 24,0 22,0 2 1 S - 10 -
20.08.2019 23:00:00 24,6 23,7 2 1 NNO 1015,9 20 -
20.08.2019 22:00:00 25,0 23,0 4 2 S - 10 -
20.08.2019 21:00:00 27,0 25,0 9 5 ESE - 10 -
20.08.2019 20:00:00 28,0 23,8 11 6 E 1015,4 20 54
20.08.2019 19:00:00 29,0 22,0 15 8 E - 10 -
20.08.2019 18:00:00 30,0 21,0 15 8 E - 10 -
20.08.2019 17:00:00 31,0 20,6 16 9 E 1016,0 20 60
20.08.2019 16:00:00 31,0 21,0 15 8 E - 10 -
20.08.2019 15:00:00 31,0 18,0 13 7 ENE - 10 -
20.08.2019 14:00:00 31,8 15,7 13 7 ENE 1016,7 20 60
20.08.2019 13:00:00 32,0 16,0 13 7 NE - 10 -
20.08.2019 12:00:00 30,0 15,0 5 3 NO - 10 -
20.08.2019 11:00:00 28,0 16,6 9 5 ONO 1017,2 20 60
20.08.2019 10:00:00 26,0 16,0 9 5 O - 10 -
20.08.2019 09:00:00 24,0 18,0 8 4 O - 10 -
20.08.2019 08:00:00 19,6 17,6 8 4 OSO 1016,6 30 42
20.08.2019 07:00:00 19,0 17,0 8 4 SO - 10 -
20.08.2019 06:00:00 19,0 19,0 5 3 O - 10 -
20.08.2019 05:00:00 19,8 19,8 2 1 E 1016,2 30 -
20.08.2019 04:00:00 20,0 20,0 5 3 NNO - 10 -
20.08.2019 03:00:00 22,0 21,0 4 2 NO - 10 -
20.08.2019 02:00:00 22,4 21,4 13 7 SO 1016,1 30 -
20.08.2019 01:00:00 23,0 22,0 5 3 SSO - 10 -
20.08.2019 00:00:00 23,0 22,0 5 3 SO - 10 -
19.08.2019 23:00:00 23,8 22,6 4 2 OSO 1016,5 30 -
19.08.2019 22:00:00 26,0 23,0 4 2 SE - 10 -
19.08.2019 21:00:00 26,0 23,0 5 3 E - 10 -
19.08.2019 20:00:00 27,4 23,2 11 6 E 1015,3 20 60
19.08.2019 19:00:00 28,0 23,0 18 10 ESE - 10 -
19.08.2019 18:00:00 29,0 18,0 18 10 ESE - 10 -
19.08.2019 17:00:00 30,0 22,4 21 11 E 1015,8 20 60
19.08.2019 16:00:00 30,0 22,0 18 10 E - 10 -
19.08.2019 15:00:00 31,0 21,0 16 9 ENE - 10 -
19.08.2019 14:00:00 30,6 19,6 16 9 NE 1015,9 20 60
19.08.2019 13:00:00 31,0 19,0 13 7 NE - 10 -
19.08.2019 12:00:00 30,0 17,0 4 2 NNO - 10 -
19.08.2019 11:00:00 28,2 17,4 8 4 NNO 1015,5 20 60
19.08.2019 10:00:00 26,0 19,0 4 2 NNO - 10 -
19.08.2019 09:00:00 24,0 18,0 9 5 O - 10 -
19.08.2019 08:00:00 19,2 17,5 5 3 SO 1015,2 20 54
19.08.2019 07:00:00 18,0 17,0 5 3 O - 10 -
19.08.2019 06:00:00 19,0 18,0 5 3 OSO - 10 -
19.08.2019 05:00:00 18,9 17,7 5 3 SO 1014,7 20 -
19.08.2019 04:00:00 20,0 18,0 9 5 SO - 10 -
19.08.2019 03:00:00 21,0 19,0 9 5 SO - 10 -
19.08.2019 02:00:00 21,0 19,3 11 6 SO 1014,9 20 -
19.08.2019 01:00:00 22,0 20,0 8 4 SO - 10 -
19.08.2019 00:00:00 22,0 21,0 9 5 SO - 10 -
18.08.2019 23:00:00 22,6 20,9 4 2 O 1014,9 20 -
18.08.2019 22:00:00 23,0 21,0 4 2 SSO - 10 -
18.08.2019 21:00:00 26,0 22,0 9 5 E - 10 -
18.08.2019 20:00:00 27,6 21,2 11 6 E 1014,3 30 54
18.08.2019 19:00:00 29,0 21,0 16 9 ESE - 10 -
18.08.2019 18:00:00 29,0 21,0 16 9 E - 10 -
18.08.2019 17:00:00 29,4 20,3 21 11 E 1014,8 30 60
18.08.2019 16:00:00 30,0 19,0 16 9 E - 10 -
18.08.2019 15:00:00 30,0 19,0 16 9 ENE - 10 -
18.08.2019 14:00:00 29,2 19,5 15 8 ENE 1015,3 30 60
18.08.2019 13:00:00 29,0 19,0 15 8 ENE - 10 -
18.08.2019 12:00:00 28,0 17,0 5 3 N - 10 -
18.08.2019 11:00:00 26,6 15,7 5 3 NE 1015,7 10 60
18.08.2019 10:00:00 25,0 17,0 8 4 NNO - 10 -
18.08.2019 09:00:00 23,0 18,0 4 2 ONO - 10 -
18.08.2019 08:00:00 19,6 17,2 5 3 SO 1015,4 16 60
18.08.2019 07:00:00 18,0 17,0 5 3 SSO - 10 -
18.08.2019 06:00:00 17,0 17,0 5 3 SSO - 10 -
18.08.2019 05:00:00 17,4 16,8 5 3 O 1015,2 16 -
18.08.2019 04:00:00 18,0 17,0 8 4 SO - 10 -
18.08.2019 03:00:00 18,0 17,0 4 2 O - 10 -
18.08.2019 02:00:00 18,6 17,8 5 3 O 1015,3 16 -
18.08.2019 01:00:00 20,0 19,0 4 2 - - 10 -
18.08.2019 00:00:00 20,0 19,0 8 4 SSO - 10 -
17.08.2019 23:00:00 21,2 18,8 5 3 SSO 1015,4 16 -
17.08.2019 22:00:00 24,0 20,0 9 5 E - 10 -
17.08.2019 21:00:00 23,0 18,0 9 5 E - 10 -
17.08.2019 20:00:00 25,8 19,0 15 8 E 1014,7 20 18
17.08.2019 19:00:00 26,0 18,0 21 11 E - 10 -
17.08.2019 18:00:00 27,0 19,0 21 11 E - 10 -
17.08.2019 17:00:00 27,7 19,2 21 11 E 1015,1 20 60
17.08.2019 16:00:00 27,0 19,0 16 9 E - 10 -
17.08.2019 15:00:00 28,0 18,0 18 10 E - 10 -
17.08.2019 14:00:00 27,7 19,5 16 9 E 1016,5 20 60
17.08.2019 13:00:00 27,0 19,0 15 8 E - 10 -
17.08.2019 12:00:00 27,0 18,0 15 8 E - 10 -
17.08.2019 11:00:00 25,5 17,4 11 6 E 1016,9 10 60
17.08.2019 10:00:00 24,0 17,0 4 2 SO - 10 -
17.08.2019 09:00:00 20,0 17,0 4 2 ONO - 10 -
17.08.2019 08:00:00 17,7 17,2 5 3 ONO 1016,4 20 24
17.08.2019 07:00:00 15,0 15,0 5 3 ONO - 10 -
17.08.2019 06:00:00 15,0 15,0 4 2 SSO - 10 -
17.08.2019 05:00:00 15,4 14,9 2 1 S 1016,3 20 -
17.08.2019 04:00:00 17,0 16,0 5 3 O - 10 -
17.08.2019 03:00:00 17,0 16,0 4 2 OSO - 10 -
17.08.2019 02:00:00 17,2 16,2 4 2 SSO 1016,3 20 -
17.08.2019 01:00:00 18,0 16,0 2 1 SSO - 10 -
17.08.2019 00:00:00 18,0 15,0 4 2 S - 10 -
16.08.2019 23:00:00 20,0 15,4 8 4 SSO 1016,2 20 -
16.08.2019 22:00:00 22,0 16,0 8 4 ESE - 10 -
16.08.2019 21:00:00 23,0 16,0 9 5 ESE - 10 -
16.08.2019 20:00:00 25,0 15,6 9 5 ESE 1015,5 16 48
16.08.2019 19:00:00 25,0 15,0 11 6 ESE - 10 -
16.08.2019 18:00:00 26,0 17,0 13 7 E - 10 -
16.08.2019 17:00:00 26,0 17,6 13 7 E 1016,1 16 60
16.08.2019 16:00:00 27,0 18,0 15 8 NE - 10 -
16.08.2019 15:00:00 26,0 19,0 15 8 NE - 10 -
16.08.2019 14:00:00 26,0 19,4 15 8 NE 1016,4 16 60
16.08.2019 13:00:00 25,0 18,0 9 5 NNE - 10 -
16.08.2019 12:00:00 25,0 19,0 8 4 NNO - 10 -
16.08.2019 11:00:00 23,8 19,9 11 6 NNO 1016,7 16 48
16.08.2019 10:00:00 22,0 20,0 13 7 O - 10 -
16.08.2019 09:00:00 21,0 19,0 15 8 O - 10 -
16.08.2019 08:00:00 19,6 17,7 15 8 NO 1016,0 20 24
16.08.2019 07:00:00 19,0 18,0 15 8 ONO - 10 -
16.08.2019 06:00:00 21,0 17,0 13 7 NE - 10 -
16.08.2019 05:00:00 21,6 17,8 18 10 NE 1015,3 15 -
16.08.2019 04:00:00 20,0 18,0 24 13 N - 10 -
16.08.2019 03:00:00 20,0 17,0 4 2 OSO - 10 -
16.08.2019 02:00:00 20,0 16,4 2 1 O 1014,0 20 -
16.08.2019 01:00:00 21,0 16,0 4 2 SO - 10 -
16.08.2019 00:00:00 22,0 15,0 5 3 SE - 10 -
15.08.2019 23:00:00 22,0 15,1 9 5 SE 1014,0 20 -
15.08.2019 22:00:00 22,0 15,0 11 6 SE - 10 -
15.08.2019 21:00:00 23,0 15,0 9 5 ESE - 10 -
15.08.2019 20:00:00 25,0 14,8 13 7 ESE 1013,6 20 60
15.08.2019 19:00:00 26,0 15,0 16 9 E - 10 -
15.08.2019 18:00:00 26,0 14,0 18 10 E - 10 -
15.08.2019 17:00:00 27,0 14,7 16 9 E 1014,4 20 60
15.08.2019 16:00:00 27,0 16,0 18 10 E - 10 -
15.08.2019 15:00:00 27,0 16,0 16 9 E - 10 -
15.08.2019 14:00:00 27,0 18,0 15 8 ENE 1016,0 20 60

tt = Temperatura
td = dewpoint
ff = velocità del vento
dd = direzione del vento
ppp = reduced air pressure
vv = visibility
sd = ore di luce

Stazioni seguenti

WeatherPro
AMSI
MeteoEarth